Вернуться в каталог

STARLINK-35749

АктивенСвязьVLEO
NORAD 66879·PAYLOAD·🇺🇸 United States

Запущен Dec 4, 2025 с Vandenberg Space Force Base

Loading…

Ближайшие Пролёты (ближайшие 24 часа)

TLE

СвежийSource: CelesTrak SupGP

Эпоха: Sep 15, 2026, 03:51 UTC

1 66879C 25283B   26258.16090278 -.00058306  00000+0 -17229-2 0  2586
2 66879  53.1577 222.9112 0001453  93.3277 125.6309 15.34414655    14

Отслеживайте STARLINK-35749 в реальном времени с AllMySat

Download on the App Store